Fernandina Beach, FL

1:20 AM EST on December 11, 2019 (GMT -0500)
Fernandina Beach

Weather History for KFHB - October, 2019

Change the Weather History Date:

Saturday, October 26, 2019

  Actual Average (KNRB) Record (KNRB)
Temperature  
Mean Temperature 79 °F -  
Max Temperature 83 °F 75 °F 90 °F (2010)
Min Temperature 75 °F 62 °F 43 °F (2005)
Cooling Degree Days 14    
Growing Degree Days 29 (Base 50)    
Moisture  
Dew Point 74 °F    
Average Humidity 85    
Maximum Humidity 95    
Minimum Humidity 77    
Precipitation  
Precipitation 0.00 in - - ()
Sea Level Pressure  
Sea Level Pressure 29.97 in    
Wind  
Wind Speed 11 mph (SE)    
Max Wind Speed 17 mph    
Max Gust Speed 23 mph    
Visibility 10 miles    
Events Rain    
Averages and records for this station are not official NWS values.
T = Trace of Precipitation, MM = Missing Value Source: NWS Daily Summary

Daily Weather History Graph

Daily Weather History Graph

Search for Another Location

Airport or City:

Astronomy

Oct. 26, 2019 Rise Set
Actual Time 7:35 AM EDT 6:43 PM EDT
Civil Twilight 7:11 AM EDT 7:07 PM EDT
Nautical Twilight 6:42 AM EDT 7:36 PM EDT
Astronomical Twilight 6:14 AM EDT 8:04 PM EDT
Moon 5:43 AM EDT (10/26) 6:07 PM EDT (10/26)
Length of Visible Light 11h 56m
Length of Day
11h 07m
Waning Crescent, 3% of the Moon is Illuminated
Oct 26
Waning Crescent
Oct 27
New
Nov 4
First Quarter
Nov 12
Full
Nov 19
Last Quarter

Hourly Weather History & Observations

Time (EDT) Temp. Heat Index Dew Point Humidity Pressure Visibility Wind Dir Wind Speed Gust Speed Precip Events Conditions
12:15 AM 77.0 °F - 70.5 °F 80% 30.08 in 10.0 mi ESE 11.5 mph - N/A   Scattered Clouds
12:35 AM 77.0 °F - 69.8 °F 78% 30.07 in 10.0 mi ESE 10.4 mph - N/A   Scattered Clouds
12:55 AM 76.6 °F - 69.8 °F 79% 30.06 in 10.0 mi ESE 12.7 mph - N/A   Scattered Clouds
1:15 AM 76.5 °F - 69.8 °F 80% 30.06 in 10.0 mi ESE 10.4 mph - N/A   Clear
1:35 AM 76.5 °F - 69.8 °F 80% 30.05 in 10.0 mi ESE 11.5 mph - N/A   Clear
1:55 AM 76.5 °F - 68.9 °F 77% 30.04 in 10.0 mi ESE 12.7 mph 19.6 mph N/A   Clear
2:15 AM 76.5 °F - 69.4 °F 79% 30.04 in 10.0 mi ESE 10.4 mph 19.6 mph N/A   Clear
2:35 AM 76.3 °F - 69.8 °F 80% 30.04 in 10.0 mi ESE 9.2 mph - N/A   Clear
2:55 AM 76.3 °F - 69.1 °F 78% 30.03 in 10.0 mi ESE 9.2 mph - N/A   Clear
3:15 AM 75.9 °F - 69.6 °F 81% 30.02 in 10.0 mi ESE 8.1 mph - N/A   Scattered Clouds
3:35 AM 75.9 °F - 69.4 °F 80% 30.02 in 10.0 mi ESE 9.2 mph - N/A   Scattered Clouds
3:55 AM 75.7 °F - 69.8 °F 82% 30.01 in 10.0 mi ESE 8.1 mph - N/A   Clear
4:15 AM 75.9 °F - 70.2 °F 82% 30.01 in 10.0 mi ESE 9.2 mph - N/A   Clear
4:35 AM 75.7 °F - 70.2 °F 83% 30.01 in 10.0 mi ESE 8.1 mph - N/A   Clear
4:55 AM 76.1 °F - 70.7 °F 83% 30.01 in 10.0 mi East 8.1 mph - N/A   Mostly Cloudy
5:15 AM 76.5 °F - 70.7 °F 82% 30.00 in 10.0 mi East 9.2 mph - N/A   Overcast
5:35 AM 77.0 °F - 71.6 °F 83% 30.00 in 10.0 mi ESE 10.4 mph - N/A   Overcast
5:55 AM 77.0 °F - 71.6 °F 83% 29.99 in 10.0 mi ESE 11.5 mph - N/A   Scattered Clouds
6:15 AM 76.5 °F - 70.5 °F 82% 29.99 in 10.0 mi ESE 12.7 mph 17.3 mph N/A   Clear
6:35 AM 77.0 °F - 69.8 °F 78% 29.99 in 10.0 mi ESE 9.2 mph - N/A   Clear
6:55 AM 76.6 °F - 70.5 °F 81% 29.99 in 10.0 mi SE 10.4 mph - N/A   Mostly Cloudy
7:15 AM 77.2 °F - 70.9 °F 81% 29.99 in 10.0 mi ESE 9.2 mph - N/A   Overcast
7:35 AM 77.0 °F - 71.6 °F 83% 29.99 in 10.0 mi ESE 10.4 mph - N/A   Mostly Cloudy
7:55 AM 77.0 °F - 71.6 °F 83% 29.99 in 10.0 mi ESE 10.4 mph - N/A   Scattered Clouds
8:15 AM 77.7 °F - 72.5 °F 84% 29.99 in 10.0 mi ESE 10.4 mph - N/A   Clear
8:35 AM 77.7 °F - 73.0 °F 85% 29.99 in 10.0 mi SE 10.4 mph - N/A   Clear
8:55 AM 78.6 °F - 73.4 °F 84% 29.99 in 10.0 mi ESE 11.5 mph 19.6 mph N/A   Clear
9:15 AM 78.8 °F - 74.1 °F 85% 29.99 in 10.0 mi ESE 10.4 mph - N/A   Clear
9:35 AM 79.9 °F - 74.8 °F 85% 29.99 in 10.0 mi ESE 11.5 mph - N/A   Clear
9:55 AM 79.7 °F - 74.8 °F 85% 29.98 in 10.0 mi ESE 13.8 mph - N/A   Clear
10:15 AM 81.5 °F 88.3 °F 75.7 °F 83% 29.98 in 10.0 mi ESE 11.5 mph - N/A   Clear
10:35 AM 80.8 °F 86.5 °F 75.2 °F 83% 29.99 in 10.0 mi ESE 11.5 mph 16.1 mph N/A   Clear
10:55 AM 81.5 °F 88.5 °F 76.1 °F 84% 29.98 in 10.0 mi ESE 12.7 mph 19.6 mph N/A   Scattered Clouds
11:15 AM 82.4 °F 90.6 °F 76.6 °F 83% 29.99 in 10.0 mi SE 12.7 mph 18.4 mph N/A   Scattered Clouds
11:35 AM 82.9 °F 91.8 °F 77.0 °F 82% 29.99 in 10.0 mi SE 13.8 mph 18.4 mph N/A   Clear
11:55 AM 83.1 °F 91.9 °F 76.6 °F 81% 29.99 in 10.0 mi SE 17.3 mph - N/A   Scattered Clouds
12:15 PM 82.4 °F 90.6 °F 76.6 °F 83% 29.99 in 10.0 mi SE 13.8 mph - N/A   Overcast
12:35 PM 82.9 °F 91.2 °F 76.3 °F 80% 29.99 in 10.0 mi SE 16.1 mph - N/A   Mostly Cloudy
12:55 PM 83.1 °F 91.6 °F 76.3 °F 80% 29.99 in 10.0 mi SE 17.3 mph 23.0 mph N/A   Scattered Clouds
1:15 PM 83.7 °F 93.1 °F 77.0 °F 80% 29.98 in 10.0 mi SSE 13.8 mph 21.9 mph N/A   Mostly Cloudy
1:35 PM 83.5 °F 92.6 °F 76.8 °F 80% 29.96 in 10.0 mi SE 13.8 mph - N/A   Scattered Clouds
1:55 PM 82.8 °F 91.3 °F 76.8 °F 82% 29.95 in 10.0 mi SE 13.8 mph - N/A   Scattered Clouds
2:15 PM 81.1 °F 88.2 °F 76.8 °F 87% 29.94 in 10.0 mi SE 12.7 mph - N/A   Scattered Clouds
2:35 PM 82.8 °F 91.6 °F 77.0 °F 83% 29.93 in 10.0 mi SE 13.8 mph - N/A   Mostly Cloudy
2:55 PM 80.8 °F 87.4 °F 76.8 °F 88% 29.93 in 10.0 mi SE 15.0 mph - N/A   Mostly Cloudy
3:15 PM 81.7 °F 89.5 °F 77.2 °F 86% 29.92 in 10.0 mi SE 13.8 mph 18.4 mph N/A   Mostly Cloudy
3:35 PM 82.6 °F 91.4 °F 77.2 °F 84% 29.91 in 10.0 mi SE 12.7 mph - N/A   Scattered Clouds
3:55 PM 82.8 °F 91.3 °F 76.6 °F 82% 29.91 in 10.0 mi SSE 16.1 mph 23.0 mph N/A   Scattered Clouds
4:35 PM 81.0 °F 87.5 °F 76.3 °F 86% 29.91 in 10.0 mi SSE 15.0 mph - N/A   Overcast
4:55 PM 81.7 °F 88.7 °F 76.1 °F 83% 29.91 in 10.0 mi SSE 12.7 mph 19.6 mph N/A   Mostly Cloudy
5:15 PM 80.1 °F 85.4 °F 75.9 °F 87% 29.91 in 10.0 mi SSE 9.2 mph - N/A   Scattered Clouds
5:35 PM 79.9 °F - 76.6 °F 90% 29.90 in 10.0 mi SSE 10.4 mph - N/A Rain Light Rain
5:55 PM 77.7 °F - 75.4 °F 92% 29.90 in 10.0 mi SSE 15.0 mph 20.7 mph N/A   Scattered Clouds
6:15 PM 77.7 °F - 75.2 °F 92% 29.90 in 10.0 mi South 11.5 mph 21.9 mph N/A   Clear
6:35 PM 77.4 °F - 75.2 °F 93% 29.90 in 10.0 mi SSE 13.8 mph 17.3 mph N/A   Clear
6:55 PM 77.4 °F - 75.6 °F 94% 29.91 in 10.0 mi SSE 10.4 mph - N/A   Clear
7:15 PM 77.5 °F - 75.2 °F 92% 29.92 in 10.0 mi SSE 10.4 mph - N/A   Scattered Clouds
7:35 PM 77.5 °F - 75.2 °F 92% 29.92 in 10.0 mi SSE 11.5 mph - N/A   Mostly Cloudy
7:55 PM 77.5 °F - 75.9 °F 95% 29.91 in 10.0 mi SSE 11.5 mph - N/A   Scattered Clouds
8:15 PM 77.7 °F - 75.9 °F 94% 29.92 in 10.0 mi South 9.2 mph - N/A   Mostly Cloudy
8:35 PM 77.7 °F - 75.7 °F 94% 29.92 in 10.0 mi SSE 11.5 mph - N/A   Mostly Cloudy
8:55 PM 77.5 °F - 76.1 °F 95% 29.91 in 10.0 mi SSE 11.5 mph - N/A   Mostly Cloudy
9:15 PM 77.5 °F - 76.1 °F 95% 29.92 in 10.0 mi SSE 11.5 mph - N/A   Mostly Cloudy
9:35 PM 77.5 °F - 75.2 °F 92% 29.93 in 10.0 mi SSE 12.7 mph - N/A   Scattered Clouds
9:55 PM 77.5 °F - 75.4 °F 93% 29.94 in 10.0 mi South 10.4 mph - N/A   Scattered Clouds
10:15 PM 77.7 °F - 75.4 °F 92% 29.94 in 10.0 mi South 8.1 mph - N/A   Mostly Cloudy
10:35 PM 77.5 °F - 75.4 °F 93% 29.94 in 10.0 mi South 6.9 mph - N/A   Overcast
10:55 PM 77.4 °F - 75.0 °F 92% 29.94 in 10.0 mi South 6.9 mph - N/A   Mostly Cloudy
11:15 PM 77.4 °F - 75.0 °F 92% 29.94 in 10.0 mi South 8.1 mph - N/A   Scattered Clouds
11:35 PM 76.8 °F - 75.0 °F 94% 29.94 in 10.0 mi South 8.1 mph - N/A   Clear
11:55 PM 76.6 °F - 74.8 °F 94% 29.94 in 10.0 mi South 9.2 mph - N/A   Scattered Clouds